Torna al catalogo

STARLINK-3658

AttivoComunicazioniVLEO
NORAD 52107·PAYLOAD·🇺🇸 United States

Lanciato Mar 19, 2022 da Cape Canaveral Space Force Station

Loading…

Prossimi Passaggi (prossime 24 ore)

TLE

AggiornatoSource: CelesTrak SupGP

Epoca: Sep 14, 2026, 21:57 UTC

1 52107C 22029V   26257.91506944  .00032938  00000+0  97342-3 0  2579
2 52107  53.1571 295.4795 0001086  87.1734 248.3570 15.34365663    17

Traccia STARLINK-3658 in tempo reale con AllMySat

Download on the App Store